Weather History for Pompano Beach, FL

Change the Weather History Date:

Sunday, October 16, 2011

  Actual Average Record
Temperature  
Mean Temperature 78 °F -  
Max Temperature 82 °F 87 °F 94 °F (1976)
Min Temperature 75 °F 70 °F 55 °F (1955)
Cooling Degree Days 14    
Growing Degree Days 28 (Base 50)    
Moisture  
Dew Point 74 °F    
Average Humidity 84    
Maximum Humidity 96    
Minimum Humidity 76    
Precipitation  
Precipitation 0.13 in - - ()
Sea Level Pressure  
Sea Level Pressure 30.00 in    
Wind  
Wind Speed 16 mph (ENE)    
Max Wind Speed 22 mph    
Max Gust Speed 31 mph    
Visibility 10 miles    
Events Rain    
Averages and records for this station are not official NWS values.
T = Trace of Precipitation, MM = Missing Value Source: NWS Daily Summary

Daily Weather History Graph

Daily Weather History Graph

Search for Another Location

Airport:

Trip Planner

Search our weather history database for the weather conditions in past years. The results will help you decide how hot, cold, wet, or windy it might be!

Date:

Astronomy

Oct. 16, 2011 Rise Set
Actual Time 7:19 AM EDT 6:51 PM EDT
Civil Twilight 6:56 AM EDT 7:15 PM EDT
Nautical Twilight 6:29 AM EDT 7:41 PM EDT
Astronomical Twilight 6:02 AM EDT 8:08 PM EDT
Moon 10:00 PM EDT (10/16) 11:11 AM EDT (10/16)
Length of Visible Light 12h 18m
Length of Day
11h 31m
Waning Gibbous, 82% of the Moon is Illuminated
Oct 16
Waning Gibbous
Oct 19
Last Quarter
Oct 26
New
Nov 2
First Quarter
Nov 10
Full

Hourly Weather History & Observations

Time (EDT) Temp. Heat Index Dew Point Humidity Pressure Visibility Wind Dir Wind Speed Gust Speed Precip Events Conditions
12:53 AM 80.1 °F 84.2 °F 73.0 °F 79% 30.02 in 10.0 mi ENE 15.0 mph 23.0 mph N/A   Partly Cloudy
1:25 AM 80.6 °F 85.4 °F 73.4 °F 79% 30.02 in 10.0 mi ENE 15.0 mph - N/A   Mostly Cloudy
1:44 AM 80.6 °F 85.4 °F 73.4 °F 79% 30.02 in 10.0 mi East 16.1 mph 20.7 mph N/A   Scattered Clouds
1:53 AM 80.1 °F 84.2 °F 73.0 °F 79% 30.02 in 10.0 mi ENE 13.8 mph 18.4 mph N/A   Partly Cloudy
2:11 AM 80.6 °F 85.4 °F 73.4 °F 79% 30.01 in 10.0 mi ENE 15.0 mph 21.9 mph N/A   Mostly Cloudy
2:53 AM 80.1 °F 83.8 °F 72.0 °F 76% 30.00 in 10.0 mi ENE 13.8 mph 20.7 mph N/A   Mostly Cloudy
3:53 AM 80.1 °F 84.2 °F 73.0 °F 79% 29.98 in 10.0 mi ENE 17.3 mph 23.0 mph N/A   Overcast
4:36 AM 80.6 °F 85.4 °F 73.4 °F 79% 29.97 in 10.0 mi ENE 15.0 mph 21.9 mph N/A   Mostly Cloudy
4:53 AM 80.1 °F 84.2 °F 73.0 °F 79% 29.97 in 10.0 mi ENE 17.3 mph 23.0 mph N/A   Partly Cloudy
5:53 AM 80.1 °F 84.5 °F 73.9 °F 81% 29.98 in 10.0 mi East 13.8 mph - N/A   Partly Cloudy
6:20 AM 80.6 °F 85.4 °F 73.4 °F 79% 29.99 in 10.0 mi ENE 8.1 mph 18.4 mph N/A   Mostly Cloudy
6:53 AM 80.1 °F 85.1 °F 75.0 °F 85% 29.99 in 10.0 mi ENE 12.7 mph - N/A   Mostly Cloudy
7:53 AM 81.0 °F 86.2 °F 73.9 °F 79% 30.00 in 10.0 mi ENE 17.3 mph 24.2 mph N/A   Overcast
8:53 AM 81.0 °F 86.7 °F 75.0 °F 82% 30.03 in 10.0 mi ENE 13.8 mph 23.0 mph N/A   Mostly Cloudy
9:40 AM 80.6 °F 86.2 °F 75.2 °F 84% 30.03 in 10.0 mi ENE 16.1 mph - N/A   Overcast
9:53 AM 81.0 °F 86.7 °F 75.0 °F 82% 30.04 in 10.0 mi ENE 16.1 mph 23.0 mph N/A   Overcast
10:53 AM 82.0 °F 88.6 °F 75.0 °F 79% 30.04 in 10.0 mi ENE 17.3 mph 25.3 mph 0.00 in   Overcast
11:53 AM 82.0 °F 88.6 °F 75.0 °F 79% 30.04 in 10.0 mi ENE 17.3 mph 23.0 mph N/A   Overcast
12:53 PM 82.0 °F 88.6 °F 75.0 °F 79% 30.02 in 10.0 mi ENE 18.4 mph 23.0 mph 0.00 in Rain Light Rain
1:53 PM 81.0 °F 87.3 °F 75.9 °F 85% 29.99 in 9.0 mi NE 15.0 mph 26.5 mph 0.00 in Rain Light Rain
2:30 PM 80.6 °F 86.2 °F 75.2 °F 84% 29.98 in 10.0 mi ENE 16.1 mph 21.9 mph 0.00 in   Overcast
2:53 PM 80.1 °F 85.1 °F 75.0 °F 85% 29.98 in 10.0 mi NE 15.0 mph 24.2 mph 0.00 in Rain Light Rain
3:02 PM 80.6 °F 86.2 °F 75.2 °F 84% 29.97 in 10.0 mi NE 19.6 mph 26.5 mph 0.00 in Rain Light Rain
3:32 PM 78.8 °F - 75.2 °F 89% 29.97 in 10.0 mi NE 15.0 mph 26.5 mph 0.00 in Rain Light Rain
3:44 PM 78.8 °F - 75.2 °F 89% 29.97 in 10.0 mi NE 16.1 mph - 0.00 in Rain Light Rain
3:53 PM 79.0 °F - 75.0 °F 88% 29.97 in 9.0 mi NE 16.1 mph 24.2 mph 0.01 in Rain Light Rain
4:29 PM 78.8 °F - 73.4 °F 83% 29.97 in 10.0 mi NE 16.1 mph 26.5 mph 0.00 in Rain Light Rain
4:39 PM 78.8 °F - 73.4 °F 83% 29.97 in 10.0 mi NE 16.1 mph - 0.00 in Rain Light Rain
4:53 PM 78.1 °F - 75.0 °F 90% 29.97 in 8.0 mi NE 16.1 mph - 0.01 in Rain Light Rain
5:53 PM 78.1 °F - 77.0 °F 96% 29.97 in 9.0 mi ENE 11.5 mph 24.2 mph 0.06 in Rain Light Rain
6:13 PM 78.8 °F - 77.0 °F 94% 29.97 in 8.0 mi ENE 16.1 mph 24.2 mph 0.01 in Rain Light Rain
6:53 PM 78.1 °F - - N/A% 29.97 in 9.0 mi ENE 17.3 mph 26.5 mph 0.02 in Rain Light Rain
7:06 PM 78.8 °F - - N/A% 29.97 in 10.0 mi ENE 21.9 mph 28.8 mph 0.00 in Rain Light Rain
7:23 PM 75.2 °F - - N/A% 29.97 in 10.0 mi East 21.9 mph 31.1 mph 0.01 in Rain Light Rain
7:53 PM 77.0 °F - - N/A% 29.98 in 10.0 mi ESE 17.3 mph 25.3 mph 0.01 in   Mostly Cloudy
8:01 PM 77.0 °F - - N/A% 29.98 in 10.0 mi ESE 19.6 mph 24.2 mph 0.00 in Rain Light Rain
8:53 PM 75.9 °F - - N/A% 30.00 in 10.0 mi ESE 16.1 mph 21.9 mph 0.00 in Rain Light Rain
9:28 PM 75.2 °F - - N/A% 30.00 in 10.0 mi ESE 18.4 mph 27.6 mph 0.01 in Rain Light Rain
9:42 PM 75.2 °F - - N/A% 30.00 in 10.0 mi ESE 17.3 mph - 0.02 in Rain Light Rain
9:51 PM 75.2 °F - - N/A% 30.01 in 10.0 mi ESE 17.3 mph 24.2 mph 0.02 in Rain Light Rain
9:53 PM 75.9 °F - - N/A% 30.01 in 10.0 mi ESE 15.0 mph 24.2 mph 0.02 in Rain Light Rain
10:53 PM 77.0 °F - 73.9 °F 90% 30.02 in 10.0 mi ESE 16.1 mph 25.3 mph 0.00 in Rain Light Rain
11:16 PM 75.2 °F - 73.4 °F 94% 30.02 in 10.0 mi ESE 19.6 mph 29.9 mph 0.00 in Rain Light Rain
11:53 PM 75.0 °F - 72.0 °F 90% 30.01 in 10.0 mi East 21.9 mph 27.6 mph 0.00 in Rain Light Rain